This is the latest recevied weather packets stored in our database for station/object SR3WXA. If no packets are shown the sender has not sent any weather packets the latest 10 day(s).
| Time | Temp. | Humidity | Pressure | Rain* | Wind** | Luminosity | Snow |
|---|---|---|---|---|---|---|---|
| 1788537891 | 24.44° C | 68% | 1003.2 hPa | 0 mm | - | 44 W/m² | - |
| 1788537659 | 24.44° C | 68% | 1003.3 hPa | 0 mm | - | 62 W/m² | - |
| 1788537590 | 24.44° C | 68% | 1003.3 hPa | 0 mm | - | 62 W/m² | - |
| 1788537386 | 24.44° C | 68% | 1003.3 hPa | 0 mm | - | 69 W/m² | - |
| 1788537290 | 24.44° C | 68% | 1003.3 hPa | 0 mm | - | 69 W/m² | - |
| 1788537036 | 25° C | 68% | 1003.3 hPa | 0 mm | - | 67 W/m² | - |
| 1788536990 | 25° C | 68% | 1003.3 hPa | 0 mm | - | 67 W/m² | - |
| 1788536794 | 25° C | 68% | 1003.5 hPa | 0 mm | - | 83 W/m² | - |
| 1788536691 | 25° C | 68% | 1003.5 hPa | 0 mm | - | 83 W/m² | - |
| 1788536468 | 24.44° C | 68% | 1003.6 hPa | 0 mm | - | 221 W/m² | - |
| 1788536391 | 24.44° C | 68% | 1003.6 hPa | 0 mm | - | 221 W/m² | - |
| 1788536159 | 24.44° C | 69% | 1003.7 hPa | 0 mm | - | 153 W/m² | - |
| 1788536090 | 24.44° C | 69% | 1003.7 hPa | 0 mm | - | 153 W/m² | - |
| 1788535874 | 24.44° C | 68% | 1003.6 hPa | 0 mm | - | 105 W/m² | - |
| 1788535792 | 24.44° C | 68% | 1003.6 hPa | 0 mm | - | 105 W/m² | - |
| 1788535567 | 24.44° C | 68% | 1003.9 hPa | 0 mm | - | 121 W/m² | - |
| 1788535490 | 24.44° C | 68% | 1003.9 hPa | 0 mm | - | 121 W/m² | - |
| 1788535272 | 24.44° C | 68% | 1003.9 hPa | 0 mm | - | 148 W/m² | - |
| 1788535220 | 24.44° C | 68% | 1003.9 hPa | 0 mm | - | 148 W/m² | - |
| 1788534968 | 24.44° C | 68% | 1003.9 hPa | 0 mm | - | 98 W/m² | - |
| 1788534890 | 24.44° C | 68% | 1003.9 hPa | 0 mm | - | 98 W/m² | - |
| 1788534643 | 24.44° C | 68% | 1004 hPa | 0 mm | - | 134 W/m² | - |
| 1788534591 | 24.44° C | 68% | 1004 hPa | 0 mm | - | 134 W/m² | - |
| 1788534379 | 24.44° C | 68% | 1004.1 hPa | 0 mm | - | 33 W/m² | - |
| 1788534290 | 24.44° C | 68% | 1004.1 hPa | 0 mm | - | 33 W/m² | - |
* Rain latest hour (hover to see other rain measurements)
** Current wind speed in m/s (hover to see current wind gust speed)